Tracking 19489 objects as of 23-Jan-2019
HD Live streaming from Space Station
objects crossing your sky now

NJUST-1

Track NJUST-1 now!
10-day predictions
NJUST-1 is classified as:


NORAD ID: 42722
Int'l Code: 1998-067MB
Perigee: 342.1 km
Apogee: 346.2 km
Inclination: 51.6 °
Period: 91.3 minutes
Semi major axis: 6715 km
RCS: Unknown
Launch date: November 20, 1998
Source: People's Republic of China (PRC)
Launch site: TYURATAM MISSILE AND SPACE COMPLEX (TTMTR)

Uplink (MHz):
Downlink (MHz): 436.570
Beacon (MHz):
Mode: 1200bps BPSK
Call sign: BI4ST
Status: Active

aabbcc
Your satellite tracking list
Your tracking list is empty




NASA's NSSDC Master Catalog

Two Line Element Set (TLE):
1 42722U 98067MB  19022.84078799  .00030406  00000-0  18089-3 0  9995
2 42722  51.6391 316.5813 0003037  18.0425  80.5610 15.77693628 95125
Source of the keplerian elements: AMSAT